DW5321 Paradera AW current weather conditions

sailwx.info

Wind from 089 at 7 knots gusting 13

Air temperature 26.1° C
Dewpoint 24.0° C

Last reported at 2018-Apr-24 08:02 UTC.
Time now 2018-Apr-24 08:32 UTC

Location: N 12°33' W 070°00'.
View on Google Maps.

See reports from other nearby stations

  
Tides and Currents Weather Stations Pressure Air Temp Water Temp Dewpoint Dewpoint Depression Visibility Wind Speed Wind Dir Waves Ship Positions
date/time (UTC)wind fromknots sea level pressurealtimeterstation pressurevisibilityair tempwater tempwave heightnotes
2018-Apr-24 08:02 089 7 gusting 13 26.1
2018-Apr-24 07:47 132 6 gusting 12 26.1
2018-Apr-24 07:32 088 5 gusting 10 26.1
2018-Apr-24 07:17 065 7 gusting 13 26.1
2018-Apr-24 07:02 065 6 gusting 12 26.1
2018-Apr-24 06:47 139 6 gusting 9 26.1
2018-Apr-24 06:32 066 5 gusting 15 26.1
2018-Apr-24 06:17 114 6 gusting 11 26.1
2018-Apr-24 06:02 103 8 gusting 13 26.1
2018-Apr-24 05:47 105 5 gusting 10 26.1
2018-Apr-24 05:32 084 6 gusting 13 26.1
2018-Apr-24 05:17 110 6 gusting 12 26.1
2018-Apr-24 05:02 093 5 gusting 10 26.1
2018-Apr-24 04:46 111 6 gusting 12 26.1
2018-Apr-24 04:31 094 6 gusting 13 26.1
2018-Apr-24 04:16 083 6 gusting 11 26.7
2018-Apr-24 04:01 077 6 gusting 12 26.7
2018-Apr-24 03:46 090 5 gusting 11 26.7
2018-Apr-24 03:31 108 7 gusting 13 26.1
2018-Apr-24 03:16 089 6 gusting 13 26.7
2018-Apr-24 03:01 086 6 gusting 13 26.7
2018-Apr-24 02:46 060 7 gusting 13 26.7
2018-Apr-24 02:31 134 6 gusting 13 26.1
2018-Apr-24 02:16 073 6 gusting 13 26.1
2018-Apr-24 02:01 099 6 gusting 12 26.1
2018-Apr-24 01:46 110 6 gusting 13 26.7
2018-Apr-24 01:31 082 7 gusting 13 26.7
2018-Apr-24 01:16 081 6 gusting 14 26.7
2018-Apr-24 01:01 101 6 gusting 13 26.7
2018-Apr-24 00:46 102 7 gusting 16 26.7
2018-Apr-24 00:31 084 5 gusting 11 26.7
2018-Apr-24 00:16 095 7 gusting 14 26.7
2018-Apr-24 00:01 078 6 gusting 13 26.7
2018-Apr-23 23:46 074 7 gusting 18 26.7
2018-Apr-23 23:31 073 7 gusting 12 26.7
2018-Apr-23 23:16 074 6 gusting 13 26.7
2018-Apr-23 23:01 085 8 gusting 14 26.7
2018-Apr-23 22:46 070 8 gusting 16 26.7
2018-Apr-23 22:31 101 7 gusting 14 27.2
2018-Apr-23 22:16 079 6 gusting 15 27.2
2018-Apr-23 22:02 079 8 gusting 15 27.2
2018-Apr-23 21:46 137 10 gusting 15 27.2
2018-Apr-23 21:31 071 12 gusting 15 27.8
2018-Apr-23 21:16 094 10 gusting 18 27.8
2018-Apr-23 21:01 077 10 gusting 17 27.8
2018-Apr-23 20:46 088 8 gusting 16 27.8
2018-Apr-23 20:31 066 10 gusting 16 27.8
2018-Apr-23 20:16 084 9 gusting 16 27.8
2018-Apr-23 20:01 075 6 gusting 13 28.3
2018-Apr-23 19:45 134 9 gusting 18 28.3
2018-Apr-23 19:30 094 6 gusting 16 28.9
2018-Apr-23 19:15 101 11 gusting 18 28.3
2018-Apr-23 19:00 071 8 gusting 16 28.9
2018-Apr-23 18:45 086 9 gusting 17 28.9
2018-Apr-23 18:30 113 11 gusting 16 28.9
2018-Apr-23 18:15 089 9 gusting 19 28.9
2018-Apr-23 18:00 120 13 gusting 17 28.9
2018-Apr-23 17:46 077 7 gusting 15 28.9
2018-Apr-23 17:17 110 6 gusting 12 29.4
2018-Apr-23 17:00 084 6 gusting 13 29.4
2018-Apr-23 16:45 126 9 gusting 13 29.4
2018-Apr-23 16:30 090 6 gusting 16 28.9
2018-Apr-23 16:15 020 8 gusting 12 28.9
2018-Apr-23 16:00 115 10 gusting 15 28.3
2018-Apr-23 15:45 078 8 gusting 15 28.3
2018-Apr-23 15:30 096 6 gusting 13 28.3
2018-Apr-23 15:15 084 7 gusting 14 28.3
2018-Apr-23 15:00 103 8 gusting 14 28.3
2018-Apr-23 14:45 075 13 gusting 20 28.3
2018-Apr-23 14:30 113 9 gusting 19 28.3
2018-Apr-23 14:15 117 9 gusting 18 28.3
2018-Apr-23 14:00 105 13 gusting 19 27.8
2018-Apr-23 13:44 077 8 gusting 19 28.3
2018-Apr-23 13:29 096 11 gusting 18 27.8
2018-Apr-23 13:14 098 10 gusting 18 27.8
2018-Apr-23 12:59 114 8 gusting 14 27.2
2018-Apr-23 12:44 077 11 gusting 19 27.2
2018-Apr-23 12:29 108 10 gusting 20 26.7
2018-Apr-23 12:14 083 9 gusting 16 27.2
2018-Apr-23 11:59 104 8 gusting 14 26.7
2018-Apr-23 11:44 073 6 gusting 11 26.7
2018-Apr-23 11:29 071 5 gusting 13 26.7
2018-Apr-23 11:14 091 6 gusting 13 26.1
2018-Apr-23 10:59 108 6 gusting 14 26.1
2018-Apr-23 10:44 134 6 gusting 12 26.1
2018-Apr-23 10:29 087 5 gusting 12 26.1
2018-Apr-23 10:14 077 6 gusting 9 26.1
2018-Apr-23 09:59 095 6 gusting 13 26.1
2018-Apr-23 09:44 094 6 26.1
2018-Apr-23 09:29 101 6 gusting 10 26.1
2018-Apr-23 09:14 086 6 gusting 11 26.1
2018-Apr-23 08:59 117 5 gusting 12 26.1
2018-Apr-23 08:44 090 4 gusting 11 26.1
2018-Apr-23 08:29 105 6 gusting 11 26.1
2018-Apr-23 08:14 093 8 gusting 15 26.1
2018-Apr-23 07:59 049 8 gusting 13 26.1
2018-Apr-23 07:44 075 6 gusting 11 26.1
2018-Apr-23 07:29 069 5 gusting 15 26.1
2018-Apr-23 07:15 058 8 gusting 14 26.1
2018-Apr-23 06:59 078 7 gusting 13 26.1
2018-Apr-23 06:43 065 6 gusting 13 26.1
2018-Apr-23 06:28 084 8 gusting 16 26.1
2018-Apr-23 06:13 071 5 gusting 11 26.1
2018-Apr-23 05:59 065 4 gusting 10 26.1
2018-Apr-23 05:43 058 6 gusting 13 26.1
2018-Apr-23 05:28 074 7 gusting 13 26.1
2018-Apr-23 05:13 089 6 gusting 16 26.1
2018-Apr-23 04:59 075 8 gusting 15 26.1
2018-Apr-23 04:43 066 8 gusting 13 26.7
2018-Apr-23 04:28 097 8 gusting 14 26.7
2018-Apr-23 04:13 074 10 gusting 14 26.1
2018-Apr-23 03:59 056 8 gusting 14 26.7
2018-Apr-23 03:28 085 6 gusting 11 26.7
2018-Apr-23 03:13 091 6 gusting 15 26.7
2018-Apr-23 02:59 025 7 gusting 15 26.7
2018-Apr-23 02:28 082 7 gusting 11 26.7
2018-Apr-23 01:57 107 7 gusting 13 26.7
2018-Apr-23 01:42 081 7 gusting 14 26.7
2018-Apr-23 01:27 058 9 gusting 17 26.7
2018-Apr-23 01:12 067 8 gusting 14 26.7
2018-Apr-23 00:57 099 7 gusting 13 26.7
2018-Apr-23 00:42 060 6 gusting 13 26.7
2018-Apr-23 00:27 089 6 26.7
2018-Apr-23 00:12 087 5 gusting 13 26.7
2018-Apr-22 23:57 097 6 gusting 11 26.7
2018-Apr-22 23:42 058 7 gusting 14 26.7
2018-Apr-22 23:27 107 7 gusting 13 26.7
2018-Apr-22 23:12 130 5 gusting 15 26.7
2018-Apr-22 22:57 084 8 gusting 18 26.7
2018-Apr-22 22:42 097 6 gusting 19 26.7
2018-Apr-22 22:27 092 8 gusting 17 26.7
2018-Apr-22 22:12 082 11 gusting 19 26.7
2018-Apr-22 21:57 101 9 gusting 16 27.2
2018-Apr-22 21:42 093 9 gusting 15 27.2
2018-Apr-22 21:27 068 9 gusting 18 27.2
2018-Apr-22 21:12 084 8 gusting 17 27.2
2018-Apr-22 20:57 071 7 gusting 15 27.2
2018-Apr-22 20:42 120 7 gusting 16 27.2
2018-Apr-22 20:27 097 13 gusting 19 27.2
2018-Apr-22 20:12 108 10 gusting 17 27.8
2018-Apr-22 19:57 074 9 gusting 16 27.8
2018-Apr-22 19:42 096 11 gusting 18 27.8
2018-Apr-22 19:27 115 12 gusting 16 27.8
2018-Apr-22 19:12 103 8 gusting 18 27.8
2018-Apr-22 18:57 127 10 gusting 15 28.3
2018-Apr-22 18:42 082 10 gusting 17 28.3
2018-Apr-22 18:27 088 11 gusting 18 28.9
2018-Apr-22 18:12 094 9 gusting 19 28.9
2018-Apr-22 17:57 095 8 gusting 19 28.9
2018-Apr-22 17:42 117 12 gusting 18 28.9
2018-Apr-22 17:27 102 9 gusting 17 28.9
2018-Apr-22 17:12 105 12 gusting 19 28.9
2018-Apr-22 16:57 092 15 gusting 20 28.3
2018-Apr-22 16:42 057 11 gusting 19 28.3
2018-Apr-22 16:27 084 11 gusting 19 28.3
2018-Apr-22 16:12 094 13 gusting 20 28.3
2018-Apr-22 15:56 122 13 gusting 24 28.3
2018-Apr-22 15:41 078 13 gusting 21 28.3
2018-Apr-22 15:26 077 11 gusting 19 28.3
2018-Apr-22 15:11 110 13 gusting 19 28.9
2018-Apr-22 14:56 065 12 gusting 17 28.9
2018-Apr-22 14:41 099 8 gusting 17 28.9
2018-Apr-22 14:26 120 13 gusting 20 28.3
2018-Apr-22 14:11 117 13 gusting 18 28.3
2018-Apr-22 13:56 103 13 gusting 21 28.3
2018-Apr-22 13:41 127 12 gusting 22 28.3
2018-Apr-22 13:26 074 15 gusting 22 27.8
2018-Apr-22 13:11 119 13 gusting 21 27.8
2018-Apr-22 12:57 058 9 gusting 16 27.8
2018-Apr-22 12:42 117 12 gusting 19 27.8
2018-Apr-22 12:26 084 8 gusting 16 27.2
2018-Apr-22 11:55 103 10 gusting 16 26.7
2018-Apr-22 11:40 079 7 gusting 18 26.7
2018-Apr-22 11:25 058 7 gusting 14 26.7
2018-Apr-22 11:10 117 7 gusting 13 26.7
2018-Apr-22 10:55 089 7 gusting 16 26.1
2018-Apr-22 10:40 120 7 gusting 13 26.1
2018-Apr-22 10:25 074 6 gusting 13 26.1
2018-Apr-22 10:10 098 9 gusting 13 26.1
2018-Apr-22 09:55 096 6 gusting 12 26.1
2018-Apr-22 09:40 122 7 gusting 12 26.1
2018-Apr-22 09:25 114 6 gusting 12 26.1
2018-Apr-22 09:10 101 9 gusting 17 26.1
2018-Apr-22 08:55 091 7 gusting 17 26.1
2018-Apr-22 08:40 115 6 gusting 15 26.1
2018-Apr-22 08:25 120 7 gusting 16 26.1
2018-Apr-22 08:10 132 9 gusting 16 26.1